DIWATA-2B

Last updated on Tue Oct 21 2025 00:03:13 GMT+0000 (Coordinated Universal Time)

1 43678U 18084H 25293.59267237 .00005548 00000+0 46220-3 0 9999 2 43678 98.1077 114.9137 0007545 186.1601 173.9530 14.99048253380309
UTC large
Height (km)
Speed (km/s)
/
Latitude / Longitude
Inclination (degrees)
Orbital Period (minutes)
Azimuth
Elevation
Range (km)
Doppler Factor

Next 0 passes for location: London (51.5072 / 0.1276)

Sorry there are no passes over London.